Presure
319 272 264 241 191 205 186 186 181 192 178 177 186 182 169 189 212 207 198 186 177 192 178 184 174 178 183 179 179 188 184 185 186 163 187 177 183 161 185 185 201 216 242
308 317 260 256 246 188 188 225 237 217 242 180 231 225 204 171 199 214 203 182 192 186 181 203 136 183 186 197 185 194 194 180 192 182 159 131 196 189 195 197 201 200 203
297 290 277 277 252 199 244 214 211 221 227 186 226 207 197 253 210 194 201 191 194 188 183 194 184 192 187 186 191 181 195 178 191 176 170 196 184 194 192 168 203 201 216
279 272 272 265 270 277 290 236 181 185 180 251 216 195 200 221 216 217 205 201 192 173 183 180 180 183 187 174 182 193 180 192 151 192 145 191 154 185 181 189 191 223 188
286 256 251 273 274 280 277 264 280 261 271 195 277 270 250 232 233 252 217 193 164 194 189 192 181 184 189 179 183 183 188 172 187 166 191 183 183 192 177 186 211 190 226
229 236 241 240 241 260 255 248 246 235 252 250 251 247 240 233 238 238 204 183 205 196 189 177 192 186 184 190 172 191 186 181 177 182 190 179 191 183 200 188 194 199 192
235 233 232 225 234 237 238 239 238 251 239 239 236 238 231 226 197 234 228 226 209 206 193 190 192 194 192 185 181 174 176 185 190 189 168 188 155 205 201 174 202 154 201
239 230 227 230 226 232 238 245 244 249 241 239 239 236 238 224 234 235 186 215 203 206 203 193 192 193 191 190 176 190 191 186 189 166 189 148 172 195 198 201 182 157 203
239 238 246 232 239 237 229 253 232 256 230 247 237 236 231 209 231 238 203 205 248 226 215 201 202 195 192 190 191 183 176 190 177 181 155 199 163 144 213 173 177 205 167
234 226 244 243 248 254 255 240 232 246 199 227 235 224 248 227 214 223 215 238 215 231 212 203 193 194 195 199 194 200 200 201 200 134 192 174 162 216 203 199 206 150 208
228 234 244 230 225 247 235 237 260 242 237 229 237 235 233 243 243 245 233 230 243 246 217 219 210 210 210 207 205 207 207 205 203 203 177 140 187 197 196 201 189 203 172
224 225 225 225 236 230 232 242 251 246 253 254 258 219 221 229 226 251 255 258 253 245 254 234 228 221 217 214 212 208 208 206 210 205 204 196 198 204 199 206 189 211 210
219 226 229 228 229 235 225 227 239 237 236 243 240 246 245 244 245 212 218 246 254 252 237 239 235 228 227 226 224 222 218 212 213 214 216 214 209 169 220 211 219 171 214
228 224 238 221 217 223 235 220 234 241 238 244 239 238 238 237 236 240 246 248 243 234 238 248 243 238 239 237 235 228 225 224 223 224 229 232 231 224 221 223 218 224 231
239 228 229 232 237 242 237 241 235 235 239 247 241 240 238 245 244 240 241 242 240 242 243 235 238 238 233 236 234 246 248 248 246 244 236 221 234 223 214 224 224 214 207
212 227 223 221 218 220 226 222 242 241 242 243 231 253 251 243 253 246 243 241 240 246 239 239 243 240 240 239 238 242 238 235 237 237 238 236 228 221 215 212 207 217 221
269 258 266 267 246 257 238 248 253 259 242 243 261 258 250 254 269 244 259 239 238 231 248 230 244 239 237 239 242 242 238 237 239 235 233 228 230 228 228 229 228 227 218
269 250 249 252 265 265 264 317 318 274 309 324 325 330 331 299 306 306 281 285 273 274 264 244 245 241 254 240 236 244 233 240 232 229 234 243 240 238 237 233 225 222 218
303 298 294 292 288 287 286 285 284 289 290 291 291 294 311 322 329 342 347 343 346 345 322 309 310 280 256 260 253 262 239 242 251 248 243 245 239 236 239 239 236 236 234
283 277 272 271 270 267 267 270 274 276 280 287 291 294 299 310 326 342 371 514 541 550 549 499 347 348 294 301 284 271 268 265 254 249 239 259 250 244 245 244 238 244 242
267 262 257 255 256 265 271 274 274 275 277 284 290 295 306 324 547 543 564 552 540 536 521 518 521 530 355 366 374 303 292 283 274 268 258 255 252 250 246 242 241 238 243
258 255 257 258 261 259 263 266 275 272 279 284 289 305 398 525 494 472 464 532 524 516 509 504 504 505 509 515 522 413 363 301 296 280 281 271 265 256 253 249 243 242 240
252 253 260 261 255 254 261 269 267 278 284 290 306 509 472 456 446 444 435 482 503 495 491 488 482 481 484 488 494 500 503 492 368 302 282 274 280 268 272 261 250 249 250
249 253 263 263 260 255 261 269 274 280 292 309 480 457 444 439 436 442 428 493 485 478 472 469 465 459 459 465 469 473 478 487 498 493 359 305 290 276 280 273 268 265 262
249 255 259 261 271 264 277 281 279 291 339 470 450 436 425 421 408 422 424 480 472 465 457 453 449 447 446 447 449 452 454 460 470 472 453 404 417 316 287 279 274 272 271
251 256 256 261 270 275 279 284 292 347 459 444 425 411 404 402 400 391 420 412 467 458 451 443 439 437 435 434 434 435 436 439 443 449 458 439 442 389 394 351 291 284 268
Wind_Speed
80 95 92 81 93 89 93 104 95 121 87 81 74 82 72 63 72 69 65 69 67 65 68 66 61 59 60 59 57 63 56 51 57 55 49 49 45 54 41 40 45 42 33
51 53 93 90 89 92 96 90 94 101 91 72 90 92 84 58 67 69 72 72 71 73 73 71 49 73 74 70 65 70 68 48 61 54 56 39 53 42 49 49 47 42 40
46 50 62 72 99 93 97 102 101 99 83 94 89 91 86 71 71 71 76 81 73 75 73 67 68 75 76 73 73 60 69 53 64 58 53 63 52 56 51 56 54 49 44
46 49 54 58 63 68 62 80 82 90 77 86 67 64 67 71 73 74 83 82 82 70 78 73 72 70 75 62 63 75 60 68 50 67 57 64 50 53 46 52 49 52 47
25 28 32 50 56 60 65 67 52 49 48 106 55 62 66 70 74 71 86 85 69 84 81 82 79 80 78 68 72 72 73 67 71 50 70 67 64 72 48 53 57 47 39
40 38 32 33 35 38 38 45 52 63 59 62 63 69 72 78 77 74 82 69 90 88 82 73 84 82 78 81 59 78 75 68 62 70 75 68 79 63 79 66 55 53 45
40 41 44 49 48 49 56 59 64 65 67 70 73 75 81 82 68 80 85 87 86 88 84 83 87 86 84 79 75 62 66 77 80 77 68 81 63 79 65 62 65 52 51
31 44 47 51 56 53 56 62 65 71 72 76 77 78 81 75 78 83 74 80 84 90 92 87 89 88 84 82 75 82 84 79 81 65 83 63 49 81 65 71 57 57 62
36 41 53 55 55 57 54 61 61 78 67 78 75 75 70 73 78 82 77 80 86 91 96 95 95 91 91 84 86 77 74 87 74 76 49 88 53 56 82 57 63 74 58
41 44 42 46 51 53 57 61 63 69 61 69 72 71 82 79 77 82 78 85 86 87 96 95 85 88 90 92 91 95 94 94 91 57 83 66 58 82 82 81 84 58 77
45 46 45 51 55 49 57 60 55 70 73 74 79 80 80 85 86 89 91 90 93 94 92 100 98 100 100 99 100 100 97 96 93 92 76 56 82 88 90 90 81 84 70
50 50 50 52 50 53 55 54 56 63 62 66 71 78 80 83 82 88 90 90 92 94 94 101 105 104 103 102 102 102 99 94 96 95 95 89 90 95 94 97 74 95 91
48 51 54 56 58 60 61 61 62 63 68 68 73 73 74 77 83 86 87 89 90 93 97 99 102 103 104 104 105 107 108 103 102 102 102 100 96 61 100 96 96 65 94
63 61 66 61 61 64 69 63 67 72 72 74 76 78 80 81 83 84 85 87 92 95 96 98 101 103 104 104 105 104 104 105 106 106 105 100 94 98 93 93 96 94 91
69 66 67 68 70 78 76 77 76 76 80 86 83 83 83 86 89 91 92 93 94 95 97 99 99 101 102 102 102 100 100 98 98 98 98 97 93 96 94 92 92 94 94
63 71 70 69 70 71 73 74 83 81 82 83 84 92 96 91 98 98 98 97 98 100 99 99 101 102 103 104 103 102 102 101 100 99 97 94 94 95 96 96 96 96 97
72 80 82 89 86 94 81 92 97 99 88 89 104 105 97 99 106 98 103 102 101 99 109 99 106 105 105 105 107 106 103 102 101 100 100 100 100 98 99 96 97 100 96
67 77 79 82 75 77 79 60 63 91 77 74 78 81 84 104 107 116 115 117 113 117 118 109 111 109 114 110 107 113 105 109 105 102 104 106 103 100 99 99 98 99 102
40 43 46 48 52 55 59 63 67 69 71 74 76 80 83 85 86 89 90 95 100 106 115 123 125 125 118 121 118 121 110 113 115 114 111 111 108 103 103 102 102 103 106
41 45 49 53 56 60 64 66 69 71 74 77 80 83 88 93 97 101 104 70 61 54 51 63 107 110 125 128 129 126 123 123 120 115 107 114 112 111 109 107 103 105 109
45 48 52 57 61 65 68 71 73 76 79 84 89 93 100 103 56 55 46 46 47 45 49 49 47 44 106 107 109 128 128 129 126 121 121 119 115 115 113 111 108 106 110
51 54 59 62 65 67 71 73 79 81 87 91 94 100 87 52 54 55 54 42 41 41 41 42 42 42 42 43 46 92 113 128 129 125 127 124 122 120 120 116 112 112 111
56 60 65 68 68 71 75 80 82 89 93 95 100 56 59 57 56 54 53 44 38 38 37 37 38 39 40 41 42 46 52 61 113 129 123 121 127 121 124 124 118 117 119
60 64 70 73 75 75 81 85 89 92 96 99 61 60 57 54 52 49 49 38 36 35 35 34 35 37 38 38 39 42 46 50 51 59 114 131 128 123 127 126 126 125 126
63 69 73 77 83 83 87 89 91 95 98 62 60 58 55 52 50 47 45 36 35 34 33 33 33 34 35 36 37 39 43 46 49 55 70 91 92 129 129 128 126 128 131
69 73 76 80 83 86 88 90 94 100 65 62 60 57 55 52 50 48 43 41 34 33 32 33 33 33 33 34 36 38 40 43 46 50 53 67 72 95 99 117 132 132 124
Wind_Direction
220 225 228 230 203 228 220 218 234 228 250 255 253 252 255 250 244 241 236 241 254 244 262 255 260 264 262 260 267 268 268 270 272 265 283 275 280 275 286 285 305 298 285
212 215 227 230 233 224 226 237 240 235 244 251 246 248 249 247 246 235 233 250 236 244 255 249 258 259 262 260 266 266 269 267 275 276 268 269 289 282 291 301 306 300 290
191 200 213 223 231 226 242 224 226 236 245 243 250 248 250 240 240 249 235 242 235 243 250 252 251 252 259 264 264 268 269 269 276 279 277 284 279 290 290 273 298 296 290
202 212 216 219 229 237 238 239 241 239 246 251 249 249 245 247 234 236 233 235 243 244 252 257 258 258 256 268 271 269 272 275 276 279 272 285 280 280 276 287 287 293 280
172 195 213 232 242 246 245 249 251 248 244 241 239 233 229 239 234 234 229 246 255 242 247 245 257 258 257 265 267 269 271 275 276 266 281 276 279 285 271 284 290 277 281
206 200 205 213 230 217 217 226 223 233 224 223 227 223 228 232 232 230 242 254 238 241 247 261 251 258 261 258 269 264 267 270 274 277 277 274 281 277 286 277 281 287 282
209 216 213 223 224 225 228 225 226 226 225 225 229 230 234 239 246 236 231 238 240 238 249 251 250 251 255 262 265 269 270 269 270 274 269 278 269 281 284 269 287 274 277
220 225 230 230 235 234 234 236 235 226 229 232 233 236 236 248 243 240 246 246 246 245 244 251 253 253 256 258 262 262 264 269 269 269 275 276 248 280 279 284 269 267 284
228 231 228 235 238 239 244 242 240 229 247 235 241 243 249 250 250 246 245 246 246 244 243 246 248 254 258 261 260 264 268 266 266 270 254 274 246 266 277 253 268 286 275
239 239 241 236 240 242 244 246 249 243 244 250 249 250 248 249 251 252 251 253 247 248 243 248 254 255 257 256 258 259 261 263 265 266 266 262 257 274 273 279 279 267 280
250 250 251 243 246 248 246 246 247 245 249 251 249 249 251 250 249 248 250 252 252 250 247 246 251 252 253 254 256 257 258 260 263 266 265 265 269 272 274 277 275 280 272
249 249 247 248 251 250 253 252 250 245 243 246 248 254 253 253 254 251 252 252 252 252 252 248 248 250 252 254 255 259 260 261 262 263 264 265 267 269 272 274 275 275 276
256 255 254 255 257 256 255 260 256 256 254 251 250 250 251 250 251 257 256 253 253 251 250 251 251 252 252 253 254 255 257 259 260 261 261 262 263 260 264 265 265 259 268
254 256 257 255 255 259 262 256 266 263 264 258 255 252 252 253 254 254 252 252 252 252 252 252 251 252 252 252 253 254 255 256 257 258 259 260 260 261 262 263 266 267 266
258 257 259 259 261 261 262 260 261 263 264 262 258 258 258 256 253 253 253 253 253 253 252 253 253 253 254 254 254 255 255 255 255 256 257 258 258 259 261 261 262 266 270
257 259 258 258 257 258 258 259 265 262 262 260 257 264 261 257 258 256 256 254 255 253 253 254 254 254 254 255 255 254 255 255 255 255 254 254 255 257 259 261 263 262 263
264 261 263 263 263 264 268 266 266 267 269 271 269 269 266 265 263 257 257 255 255 255 252 256 253 253 253 254 255 254 254 255 255 254 254 255 255 254 255 255 256 258 262
266 265 267 267 271 272 273 279 278 271 277 279 277 277 275 268 267 263 264 262 258 255 254 256 255 255 252 253 255 253 254 253 256 257 256 256 255 254 254 254 255 256 259
279 280 280 281 280 279 279 279 278 281 281 281 280 281 285 285 282 280 275 270 266 262 259 256 254 252 255 252 253 251 255 254 253 252 254 253 254 254 253 254 253 253 253
278 279 278 280 282 281 280 282 284 285 288 290 293 293 291 293 293 291 286 288 288 288 285 271 254 253 251 250 251 251 251 250 252 252 255 247 249 252 252 251 252 251 250
285 284 283 285 286 290 293 295 296 297 298 300 300 298 297 297 302 299 300 296 291 288 283 279 276 272 250 249 248 248 248 248 250 249 250 249 249 250 251 251 252 252 252
288 289 291 292 294 295 297 300 302 302 303 302 301 300 302 307 303 299 295 298 293 288 283 279 276 272 268 262 256 248 246 246 246 248 248 248 248 249 249 250 252 251 251
294 296 297 297 297 299 302 304 303 304 304 302 303 312 310 307 304 301 297 297 295 288 283 278 273 270 266 262 257 253 250 248 245 245 247 248 248 247 247 248 250 250 250
296 299 302 302 302 302 303 304 304 304 304 305 314 312 310 308 306 305 301 302 296 289 283 277 272 267 264 262 259 254 250 249 249 245 244 244 245 247 246 246 247 247 249
301 304 304 305 304 304 305 305 305 306 312 315 314 312 311 309 307 308 306 304 297 291 283 277 272 268 264 261 258 255 251 249 248 246 242 242 240 243 246 246 248 248 248
303 305 305 305 306 307 307 307 307 316 317 315 314 312 311 309 307 304 308 305 299 291 284 278 273 269 265 261 257 254 252 249 248 247 247 243 243 245 243 245 246 247 250